Location: Nashville
(36.1660°N, 86.7840°W)
Time: 11:24:57
(UTC-06:00)

Hubble Space Telescope - Pass Details

Date: 05 December 2022
Orbit: 529 x 532 km, 28.5° (Epoch: 27 January)

Event Time Altitude Azimuth Distance (km) Brightness Sun altitude
Rises 06:00:33 0° 222° (SW) 2,646 4.1 -8.7°
Reaches altitude 10° 06:03:33 10° 199° (SSW) 1,758 3.4 -8.1°
Maximum altitude 06:05:57 15° 163° (SSE) 1,458 3.6 -7.7°
Drops below altitude 10° 06:08:21 10° 126° (SE) 1,759 5.0 -7.2°
Sets 06:11:21 0° 103° (ESE) 2,650 6.5 -6.7°
